date,time,SUV Intensity [MED/Hr],UV Index,Daily total [MED],Since Last [MED]
21/11/2022,00:02:54,0.000,0.0,0.0,0.0
21/11/2022,00:03:54,0.000,0.0,0.0,0.0
21/11/2022,00:04:55,0.000,0.0,0.0,0.0
21/11/2022,00:05:54,0.000,0.0,0.0,0.0
21/11/2022,00:06:54,0.000,0.0,0.0,0.0
21/11/2022,00:07:54,0.000,0.0,0.0,0.0
21/11/2022,00:08:54,0.000,0.0,0.0,0.0
21/11/2022,00:09:54,-0.000,0.0,0.0,0.0
21/11/2022,00:10:54,0.000,0.0,0.0,0.0
21/11/2022,00:11:54,-0.000,0.0,0.0,0.0
21/11/2022,00:12:54,-0.000,0.0,0.0,0.0
21/11/2022,00:13:54,0.000,0.0,0.0,0.0
21/11/2022,00:14:55,0.000,0.0,0.0,0.0
21/11/2022,00:15:54,-0.000,0.0,0.0,0.0
21/11/2022,00:16:54,0.000,0.0,0.0,0.0
21/11/2022,00:17:54,0.000,0.0,0.0,0.0
21/11/2022,00:18:55,0.000,0.0,0.0,0.0
21/11/2022,00:19:54,0.000,0.0,0.0,0.0
21/11/2022,00:20:54,0.001,0.0,0.0,0.0
21/11/2022,00:21:54,0.000,0.0,0.0,0.0
21/11/2022,00:22:54,0.000,0.0,0.0,0.0
21/11/2022,00:23:54,0.000,0.0,0.0,0.0
21/11/2022,00:24:55,0.000,0.0,0.0,0.0
21/11/2022,00:25:54,-0.000,0.0,0.0,0.0
21/11/2022,00:26:54,0.000,0.0,0.0,0.0
21/11/2022,00:27:55,0.000,0.0,0.0,0.0
21/11/2022,00:28:54,-0.000,0.0,0.0,0.0
21/11/2022,00:29:54,0.000,0.0,0.0,0.0
21/11/2022,00:30:54,0.000,0.0,0.0,0.0
21/11/2022,00:31:54,0.000,0.0,0.0,0.0
21/11/2022,00:32:55,-0.001,0.0,0.0,0.0
21/11/2022,00:33:54,0.000,0.0,0.0,0.0
21/11/2022,00:34:54,0.000,0.0,0.0,0.0
21/11/2022,00:35:55,0.000,0.0,0.0,0.0
21/11/2022,00:36:54,-0.000,0.0,0.0,0.0
21/11/2022,00:37:54,-0.000,0.0,0.0,0.0
21/11/2022,00:38:54,0.001,0.0,0.0,0.0
21/11/2022,00:39:54,-0.000,0.0,0.0,0.0
21/11/2022,00:40:54,0.000,0.0,0.0,0.0
21/11/2022,00:41:54,0.000,0.0,0.0,0.0
21/11/2022,00:42:54,0.000,0.0,0.0,0.0
21/11/2022,00:43:55,0.000,0.0,0.0,0.0
21/11/2022,00:44:54,0.000,0.0,0.0,0.0
21/11/2022,00:45:54,0.000,0.0,0.0,0.0
21/11/2022,00:46:54,-0.000,0.0,0.0,0.0
21/11/2022,00:47:55,-0.000,0.0,0.0,0.0
21/11/2022,00:48:54,-0.000,0.0,0.0,0.0
21/11/2022,00:49:54,-0.000,0.0,0.0,0.0
21/11/2022,00:50:54,0.000,0.0,0.0,0.0
21/11/2022,00:51:55,-0.000,0.0,0.0,0.0
21/11/2022,00:52:54,0.000,0.0,0.0,0.0
21/11/2022,00:53:54,-0.000,0.0,0.0,0.0
21/11/2022,00:54:54,0.000,0.0,0.0,0.0
21/11/2022,00:55:54,-0.000,0.0,0.0,0.0
21/11/2022,00:56:54,-0.000,0.0,0.0,0.0
21/11/2022,00:57:55,-0.000,0.0,0.0,0.0
21/11/2022,00:58:55,-0.000,0.0,0.0,0.0
21/11/2022,00:59:54,-0.000,0.0,0.0,0.0
21/11/2022,01:00:55,-0.000,0.0,0.0,0.0
21/11/2022,01:01:54,0.000,0.0,0.0,0.0
21/11/2022,01:02:54,0.000,0.0,0.0,0.0
21/11/2022,01:03:54,0.000,0.0,0.0,0.0
21/11/2022,01:04:54,0.000,0.0,0.0,0.0
21/11/2022,01:05:55,0.000,0.0,0.0,0.0
21/11/2022,01:06:54,0.000,0.0,0.0,0.0
21/11/2022,01:07:54,0.000,0.0,0.0,0.0
21/11/2022,01:08:54,-0.001,0.0,0.0,0.0
21/11/2022,01:09:54,0.000,0.0,0.0,0.0
21/11/2022,01:10:54,0.000,0.0,0.0,0.0
21/11/2022,01:11:54,0.000,0.0,0.0,0.0
21/11/2022,01:12:54,0.001,0.0,0.0,0.0
21/11/2022,01:13:55,0.000,0.0,0.0,0.0
21/11/2022,01:14:54,0.000,0.0,0.0,0.0
21/11/2022,01:15:54,0.000,0.0,0.0,0.0
21/11/2022,01:16:54,0.000,0.0,0.0,0.0
21/11/2022,01:17:54,0.000,0.0,0.0,0.0
21/11/2022,01:18:54,0.000,0.0,0.0,0.0
21/11/2022,01:19:54,0.000,0.0,0.0,0.0
21/11/2022,01:20:54,0.000,0.0,0.0,0.0
21/11/2022,01:21:54,0.000,0.0,0.0,0.0
21/11/2022,01:22:55,0.000,0.0,0.0,0.0
21/11/2022,01:23:54,0.000,0.0,0.0,0.0
21/11/2022,01:24:54,0.000,0.0,0.0,0.0
21/11/2022,01:25:54,0.000,0.0,0.0,0.0
21/11/2022,01:26:55,0.001,0.0,0.0,0.0
21/11/2022,01:27:55,-0.000,0.0,0.0,0.0
21/11/2022,01:28:54,0.000,0.0,0.0,0.0
21/11/2022,01:29:55,0.000,0.0,0.0,0.0
21/11/2022,01:30:54,0.000,0.0,0.0,0.0
21/11/2022,01:31:54,0.000,0.0,0.0,0.0
21/11/2022,01:32:55,0.000,0.0,0.0,0.0
21/11/2022,01:33:54,0.000,0.0,0.0,0.0
21/11/2022,01:34:55,-0.000,0.0,0.0,0.0
21/11/2022,01:35:54,0.000,0.0,0.0,0.0
21/11/2022,01:36:54,0.000,0.0,0.0,0.0
21/11/2022,01:37:54,0.001,0.0,0.0,0.0
21/11/2022,01:38:54,0.000,0.0,0.0,0.0
21/11/2022,01:39:55,0.000,0.0,0.0,0.0
21/11/2022,01:40:54,-0.000,0.0,0.0,0.0
21/11/2022,01:41:54,0.000,0.0,0.0,0.0
21/11/2022,01:42:55,0.000,0.0,0.0,0.0
21/11/2022,01:43:54,-0.000,0.0,0.0,0.0
21/11/2022,01:44:54,0.000,0.0,0.0,0.0
21/11/2022,01:45:55,-0.000,0.0,0.0,0.0
21/11/2022,01:46:54,0.000,0.0,0.0,0.0
21/11/2022,01:47:54,-0.000,0.0,0.0,0.0
21/11/2022,01:48:55,0.000,0.0,0.0,0.0
21/11/2022,01:49:55,0.000,0.0,0.0,0.0
21/11/2022,01:50:55,0.000,0.0,0.0,0.0
21/11/2022,01:51:55,-0.000,0.0,0.0,0.0
21/11/2022,01:52:55,0.000,0.0,0.0,0.0
21/11/2022,01:53:54,-0.000,0.0,0.0,0.0
21/11/2022,01:54:55,0.000,0.0,0.0,0.0
21/11/2022,01:55:55,0.000,0.0,0.0,0.0
21/11/2022,01:56:54,0.001,0.0,0.0,0.0
21/11/2022,01:57:54,-0.000,0.0,0.0,0.0
21/11/2022,01:58:54,-0.000,0.0,0.0,0.0
21/11/2022,01:59:54,0.000,0.0,0.0,0.0
21/11/2022,02:00:54,0.000,0.0,0.0,0.0
21/11/2022,02:01:54,0.000,0.0,0.0,0.0
21/11/2022,02:02:55,0.000,0.0,0.0,0.0
21/11/2022,02:03:54,0.000,0.0,0.0,0.0
21/11/2022,02:04:54,0.000,0.0,0.0,0.0
21/11/2022,02:05:54,0.000,0.0,0.0,0.0
21/11/2022,02:06:54,0.000,0.0,0.0,0.0
21/11/2022,02:07:56,0.000,0.0,0.0,0.0
21/11/2022,02:08:55,0.000,0.0,0.0,0.0
21/11/2022,02:09:54,0.000,0.0,0.0,0.0
21/11/2022,02:10:54,-0.000,0.0,0.0,0.0
21/11/2022,02:11:54,0.000,0.0,0.0,0.0
21/11/2022,02:12:55,0.000,0.0,0.0,0.0
21/11/2022,02:13:55,0.000,0.0,0.0,0.0
21/11/2022,02:14:55,0.000,0.0,0.0,0.0
21/11/2022,02:15:55,0.000,0.0,0.0,0.0
21/11/2022,02:16:56,-0.000,0.0,0.0,0.0
21/11/2022,02:17:54,0.000,0.0,0.0,0.0
21/11/2022,02:18:55,0.000,0.0,0.0,0.0
21/11/2022,02:19:54,0.000,0.0,0.0,0.0
21/11/2022,02:20:54,0.000,0.0,0.0,0.0
21/11/2022,02:21:54,-0.001,0.0,0.0,0.0
21/11/2022,02:22:54,-0.001,0.0,0.0,0.0
21/11/2022,02:23:55,0.000,0.0,0.0,0.0
21/11/2022,02:24:55,0.000,0.0,0.0,0.0
21/11/2022,02:25:54,0.000,0.0,0.0,0.0
21/11/2022,02:26:55,0.000,0.0,0.0,0.0
21/11/2022,02:27:54,0.000,0.0,0.0,0.0
21/11/2022,02:28:54,0.000,0.0,0.0,0.0
21/11/2022,02:29:55,0.000,0.0,0.0,0.0
21/11/2022,02:30:54,0.000,0.0,0.0,0.0
21/11/2022,02:31:55,0.000,0.0,0.0,0.0
21/11/2022,02:32:54,0.000,0.0,0.0,0.0
21/11/2022,02:33:54,0.000,0.0,0.0,0.0
21/11/2022,02:34:55,0.000,0.0,0.0,0.0
21/11/2022,02:35:55,-0.000,0.0,0.0,0.0
21/11/2022,02:36:54,-0.000,0.0,0.0,0.0
21/11/2022,02:37:54,-0.000,0.0,0.0,0.0
21/11/2022,02:38:54,-0.000,0.0,0.0,0.0
21/11/2022,02:39:54,-0.000,0.0,0.0,0.0
21/11/2022,02:40:54,0.000,0.0,0.0,0.0
21/11/2022,02:41:55,-0.000,0.0,0.0,0.0
21/11/2022,02:42:55,0.001,0.0,0.0,0.0
21/11/2022,02:43:54,0.000,0.0,0.0,0.0
21/11/2022,02:44:54,0.000,0.0,0.0,0.0
21/11/2022,02:45:55,0.000,0.0,0.0,0.0
21/11/2022,02:46:54,-0.000,0.0,0.0,0.0
21/11/2022,02:47:54,-0.000,0.0,0.0,0.0
21/11/2022,02:48:55,0.000,0.0,0.0,0.0
21/11/2022,02:49:54,0.000,0.0,0.0,0.0
21/11/2022,02:50:54,0.000,0.0,0.0,0.0
21/11/2022,02:51:55,0.000,0.0,0.0,0.0
21/11/2022,02:52:54,0.000,0.0,0.0,0.0
21/11/2022,02:53:54,-0.000,0.0,0.0,0.0
21/11/2022,02:54:55,-0.000,0.0,0.0,0.0
21/11/2022,02:55:55,-0.000,0.0,0.0,0.0
21/11/2022,02:56:54,0.000,0.0,0.0,0.0
21/11/2022,02:57:54,0.000,0.0,0.0,0.0
21/11/2022,02:58:54,0.000,0.0,0.0,0.0
21/11/2022,02:59:54,0.000,0.0,0.0,0.0
21/11/2022,03:00:54,0.000,0.0,0.0,0.0
21/11/2022,03:01:55,0.000,0.0,0.0,0.0
21/11/2022,03:02:54,-0.000,0.0,0.0,0.0
21/11/2022,03:03:54,0.001,0.0,0.0,0.0
21/11/2022,03:04:55,-0.000,0.0,0.0,0.0
21/11/2022,03:05:54,0.000,0.0,0.0,0.0
21/11/2022,03:06:54,0.000,0.0,0.0,0.0
21/11/2022,03:07:55,-0.000,0.0,0.0,0.0
21/11/2022,03:08:54,0.000,0.0,0.0,0.0
21/11/2022,03:09:55,0.000,0.0,0.0,0.0
21/11/2022,03:10:54,-0.000,0.0,0.0,0.0
21/11/2022,03:11:54,0.000,0.0,0.0,0.0
21/11/2022,03:12:55,0.000,0.0,0.0,0.0
21/11/2022,03:13:54,0.000,0.0,0.0,0.0
21/11/2022,03:14:55,0.000,0.0,0.0,0.0
21/11/2022,03:15:55,0.000,0.0,0.0,0.0
21/11/2022,03:16:55,0.000,0.0,0.0,0.0
21/11/2022,03:17:54,-0.000,0.0,0.0,0.0
21/11/2022,03:18:54,0.000,0.0,0.0,0.0
21/11/2022,03:19:55,0.000,0.0,0.0,0.0
21/11/2022,03:20:54,0.001,0.0,0.0,0.0
21/11/2022,03:21:54,0.000,0.0,0.0,0.0
21/11/2022,03:22:55,0.000,0.0,0.0,0.0
21/11/2022,03:23:54,-0.000,0.0,0.0,0.0
21/11/2022,03:24:54,0.000,0.0,0.0,0.0
21/11/2022,03:25:55,0.000,0.0,0.0,0.0
21/11/2022,03:26:54,0.000,0.0,0.0,0.0
21/11/2022,03:27:54,0.000,0.0,0.0,0.0
21/11/2022,03:28:55,-0.000,0.0,0.0,0.0
21/11/2022,03:29:54,0.000,0.0,0.0,0.0
21/11/2022,03:30:54,-0.000,0.0,0.0,0.0
21/11/2022,03:31:54,0.000,0.0,0.0,0.0
21/11/2022,03:32:55,0.000,0.0,0.0,0.0
21/11/2022,03:33:55,0.000,0.0,0.0,0.0
21/11/2022,03:34:54,0.000,0.0,0.0,0.0
21/11/2022,03:35:54,0.001,0.0,0.0,0.0
21/11/2022,03:36:54,0.000,0.0,0.0,0.0
21/11/2022,03:37:54,0.000,0.0,0.0,0.0
21/11/2022,03:38:55,-0.000,0.0,0.0,0.0
21/11/2022,03:39:55,0.000,0.0,0.0,0.0
21/11/2022,03:40:55,-0.000,0.0,0.0,0.0
21/11/2022,03:41:54,0.000,0.0,0.0,0.0
21/11/2022,03:42:54,0.000,0.0,0.0,0.0
21/11/2022,03:43:55,0.000,0.0,0.0,0.0
21/11/2022,03:44:54,0.000,0.0,0.0,0.0
21/11/2022,03:45:55,0.000,0.0,0.0,0.0
21/11/2022,03:46:54,-0.000,0.0,0.0,0.0
21/11/2022,03:47:55,0.000,0.0,0.0,0.0
21/11/2022,03:48:54,0.000,0.0,0.0,0.0
21/11/2022,03:49:55,0.001,0.0,0.0,0.0
21/11/2022,03:50:54,0.000,0.0,0.0,0.0
21/11/2022,03:51:55,0.000,0.0,0.0,0.0
21/11/2022,03:52:54,-0.000,0.0,0.0,0.0
21/11/2022,03:53:55,0.000,0.0,0.0,0.0
21/11/2022,03:54:54,0.000,0.0,0.0,0.0
21/11/2022,03:55:54,0.000,0.0,0.0,0.0
21/11/2022,03:56:55,0.000,0.0,0.0,0.0
21/11/2022,03:57:54,0.000,0.0,0.0,0.0
21/11/2022,03:58:54,0.000,0.0,0.0,0.0
21/11/2022,03:59:55,0.000,0.0,0.0,0.0
21/11/2022,04:00:54,0.000,0.0,0.0,0.0
21/11/2022,04:01:54,-0.000,0.0,0.0,0.0
21/11/2022,04:02:55,0.001,0.0,0.0,0.0
21/11/2022,04:03:54,0.001,0.0,0.0,0.0
21/11/2022,04:04:54,0.000,0.0,0.0,0.0
21/11/2022,04:05:55,0.000,0.0,0.0,0.0
21/11/2022,04:06:54,0.000,0.0,0.0,0.0
21/11/2022,04:07:54,-0.000,0.0,0.0,0.0
21/11/2022,04:08:55,0.001,0.0,0.0,0.0
21/11/2022,04:09:54,0.000,0.0,0.0,0.0
21/11/2022,04:10:54,0.000,0.0,0.0,0.0
21/11/2022,04:11:55,-0.000,0.0,0.0,0.0
21/11/2022,04:12:54,0.001,0.0,0.0,0.0
21/11/2022,04:13:55,0.000,0.0,0.0,0.0
21/11/2022,04:14:54,0.001,0.0,0.0,0.0
21/11/2022,04:15:54,0.000,0.0,0.0,0.0
21/11/2022,04:16:55,0.000,0.0,0.0,0.0
21/11/2022,04:17:54,0.000,0.0,0.0,0.0
21/11/2022,04:18:55,0.000,0.0,0.0,0.0
21/11/2022,04:19:55,0.000,0.0,0.0,0.0
21/11/2022,04:20:55,-0.000,0.0,0.0,0.0
21/11/2022,04:21:54,0.000,0.0,0.0,0.0
21/11/2022,04:22:54,0.001,0.0,0.0,0.0
21/11/2022,04:23:55,0.000,0.0,0.0,0.0
21/11/2022,04:24:55,0.000,0.0,0.0,0.0
21/11/2022,04:25:55,0.001,0.0,0.0,0.0
21/11/2022,04:26:54,0.000,0.0,0.0,0.0
21/11/2022,04:27:54,0.001,0.0,0.0,0.0
21/11/2022,04:28:54,-0.000,0.0,0.0,0.0
21/11/2022,04:29:55,0.000,0.0,0.0,0.0
21/11/2022,04:30:54,0.000,0.0,0.0,0.0
21/11/2022,04:31:55,0.001,0.0,0.0,0.0
21/11/2022,04:32:55,0.000,0.0,0.0,0.0
21/11/2022,04:33:54,0.000,0.0,0.0,0.0
21/11/2022,04:34:55,0.000,0.0,0.0,0.0
21/11/2022,04:35:55,-0.000,0.0,0.0,0.0
21/11/2022,04:36:55,0.000,0.0,0.0,0.0
21/11/2022,04:37:55,0.000,0.0,0.0,0.0
21/11/2022,04:38:55,0.000,0.0,0.0,0.0
21/11/2022,04:39:55,0.000,0.0,0.0,0.0
21/11/2022,04:40:55,0.001,0.0,0.0,0.0
21/11/2022,04:41:55,0.000,0.0,0.0,0.0
21/11/2022,04:42:55,0.000,0.0,0.0,0.0
21/11/2022,04:43:55,-0.000,0.0,0.0,0.0
21/11/2022,04:44:55,0.000,0.0,0.0,0.0
21/11/2022,04:45:55,0.000,0.0,0.0,0.0
21/11/2022,04:46:55,0.000,0.0,0.0,0.0
21/11/2022,04:47:55,0.000,0.0,0.0,0.0
21/11/2022,04:48:55,0.000,0.0,0.0,0.0
21/11/2022,04:49:54,0.000,0.0,0.0,0.0
21/11/2022,04:50:54,0.000,0.0,0.0,0.0
21/11/2022,04:51:55,0.000,0.0,0.0,0.0
21/11/2022,04:52:54,-0.000,0.0,0.0,0.0
21/11/2022,04:53:55,0.000,0.0,0.0,0.0
21/11/2022,04:54:55,0.001,0.0,0.0,0.0
21/11/2022,04:55:55,0.000,0.0,0.0,0.0
21/11/2022,04:56:55,0.001,0.0,0.0,0.0
21/11/2022,04:57:54,0.000,0.0,0.0,0.0
21/11/2022,04:58:54,-0.001,0.0,0.0,0.0
21/11/2022,04:59:55,0.000,0.0,0.0,0.0
21/11/2022,05:00:54,0.000,0.0,0.0,0.0
21/11/2022,05:01:55,0.000,0.0,0.0,0.0
21/11/2022,05:02:55,-0.000,0.0,0.0,0.0
21/11/2022,05:03:55,0.000,0.0,0.0,0.0
21/11/2022,05:04:55,-0.000,0.0,0.0,0.0
21/11/2022,05:05:54,0.000,0.0,0.0,0.0
21/11/2022,05:06:55,-0.000,0.0,0.0,0.0
21/11/2022,05:07:54,0.000,0.0,0.0,0.0
21/11/2022,05:08:55,0.000,0.0,0.0,0.0
21/11/2022,05:09:55,0.000,0.0,0.0,0.0
21/11/2022,05:10:55,0.000,0.0,0.0,0.0
21/11/2022,05:11:54,-0.000,0.0,0.0,0.0
21/11/2022,05:12:55,0.000,0.0,0.0,0.0
21/11/2022,05:13:55,0.000,0.0,0.0,0.0
21/11/2022,05:14:55,0.001,0.0,0.0,0.0
21/11/2022,05:15:54,0.000,0.0,0.0,0.0
21/11/2022,05:16:54,0.000,0.0,0.0,0.0
21/11/2022,05:17:55,-0.000,0.0,0.0,0.0
21/11/2022,05:18:54,0.000,0.0,0.0,0.0
21/11/2022,05:19:54,-0.000,0.0,0.0,0.0
21/11/2022,05:20:55,0.000,0.0,0.0,0.0
21/11/2022,05:21:55,-0.000,0.0,0.0,0.0
21/11/2022,05:22:54,0.000,0.0,0.0,0.0
21/11/2022,05:23:55,0.000,0.0,0.0,0.0
21/11/2022,05:24:55,-0.000,0.0,0.0,0.0
21/11/2022,05:25:55,0.000,0.0,0.0,0.0
21/11/2022,05:26:55,0.000,0.0,0.0,0.0
21/11/2022,05:27:55,0.000,0.0,0.0,0.0
21/11/2022,05:28:54,0.000,0.0,0.0,0.0
21/11/2022,05:29:55,0.000,0.0,0.0,0.0
21/11/2022,05:30:55,0.000,0.0,0.0,0.0
21/11/2022,05:31:55,0.000,0.0,0.0,0.0
21/11/2022,05:32:55,-0.000,0.0,0.0,0.0
21/11/2022,05:33:54,0.000,0.0,0.0,0.0
21/11/2022,05:34:54,-0.000,0.0,0.0,0.0
21/11/2022,05:35:55,0.000,0.0,0.0,0.0
21/11/2022,05:36:55,-0.000,0.0,0.0,0.0
21/11/2022,05:37:55,0.000,0.0,0.0,0.0
21/11/2022,05:38:55,-0.000,0.0,0.0,0.0
21/11/2022,05:39:55,0.000,0.0,0.0,0.0
21/11/2022,05:40:55,-0.000,0.0,0.0,0.0
21/11/2022,05:41:55,0.000,0.0,0.0,0.0
21/11/2022,05:42:55,0.001,0.0,0.0,0.0
21/11/2022,05:43:55,0.000,0.0,0.0,0.0
21/11/2022,05:44:55,-0.000,0.0,0.0,0.0
21/11/2022,05:45:55,0.000,0.0,0.0,0.0
21/11/2022,05:46:55,0.000,0.0,0.0,0.0
21/11/2022,05:47:55,0.000,0.0,0.0,0.0
21/11/2022,05:48:55,0.000,0.0,0.0,0.0
21/11/2022,05:49:55,0.000,0.0,0.0,0.0
21/11/2022,05:50:55,-0.000,0.0,0.0,0.0
21/11/2022,05:51:55,0.000,0.0,0.0,0.0
21/11/2022,05:52:55,-0.000,0.0,0.0,0.0
21/11/2022,05:53:55,-0.000,0.0,0.0,0.0
21/11/2022,05:54:55,0.000,0.0,0.0,0.0
21/11/2022,05:55:54,-0.000,0.0,0.0,0.0
21/11/2022,05:56:55,0.000,0.0,0.0,0.0
21/11/2022,05:57:55,-0.000,0.0,0.0,0.0
21/11/2022,05:58:54,-0.000,0.0,0.0,0.0
21/11/2022,05:59:54,-0.000,0.0,0.0,0.0
21/11/2022,06:00:55,-0.000,0.0,0.0,0.0
21/11/2022,06:01:54,-0.000,0.0,0.0,0.0
21/11/2022,06:02:54,-0.000,0.0,0.0,0.0
21/11/2022,06:03:55,-0.000,0.0,0.0,0.0
21/11/2022,06:04:55,-0.000,0.0,0.0,0.0
21/11/2022,06:05:55,-0.000,0.0,0.0,0.0
21/11/2022,06:06:55,-0.000,0.0,0.0,0.0
21/11/2022,06:07:54,-0.000,0.0,0.0,0.0
21/11/2022,06:08:54,0.001,0.0,0.0,0.0
21/11/2022,06:09:55,-0.000,0.0,0.0,0.0
21/11/2022,06:10:55,-0.000,0.0,0.0,0.0
21/11/2022,06:11:55,-0.000,0.0,0.0,0.0
21/11/2022,06:12:55,-0.000,0.0,0.0,0.0
21/11/2022,06:13:54,-0.000,0.0,0.0,0.0
21/11/2022,06:14:55,-0.000,0.0,0.0,0.0
21/11/2022,06:15:55,-0.000,0.0,0.0,0.0
21/11/2022,06:16:55,-0.000,0.0,0.0,0.0
21/11/2022,06:17:55,-0.000,0.0,0.0,0.0
21/11/2022,06:18:54,-0.000,0.0,0.0,0.0
21/11/2022,06:19:55,-0.000,0.0,0.0,0.0
21/11/2022,06:20:55,-0.000,0.0,0.0,0.0
21/11/2022,06:21:54,-0.000,0.0,0.0,0.0
21/11/2022,06:22:55,-0.000,0.0,0.0,0.0
21/11/2022,06:23:54,-0.000,0.0,0.0,0.0
21/11/2022,06:24:54,-0.000,0.0,0.0,0.0
21/11/2022,06:25:55,-0.000,0.0,0.0,0.0
21/11/2022,06:26:55,-0.000,0.0,0.0,0.0
21/11/2022,06:27:56,-0.000,0.0,0.0,0.0
21/11/2022,06:28:54,0.001,0.0,0.0,0.0
21/11/2022,06:29:55,-0.000,0.0,0.0,0.0
21/11/2022,06:30:55,-0.000,0.0,0.0,0.0
21/11/2022,06:31:55,-0.000,0.0,0.0,0.0
21/11/2022,06:32:54,-0.000,0.0,0.0,0.0
21/11/2022,06:33:55,-0.000,0.0,0.0,0.0
21/11/2022,06:34:55,-0.000,0.0,0.0,0.0
21/11/2022,06:35:55,-0.000,0.0,0.0,0.0
21/11/2022,06:36:55,-0.000,0.0,0.0,0.0
21/11/2022,06:37:54,-0.000,0.0,0.0,0.0
21/11/2022,06:38:55,-0.000,0.0,0.0,0.0
21/11/2022,06:39:55,-0.000,0.0,0.0,0.0
21/11/2022,06:40:55,-0.000,0.0,0.0,0.0
21/11/2022,06:41:55,-0.000,0.0,0.0,0.0
21/11/2022,06:42:55,-0.001,0.0,0.0,0.0
21/11/2022,06:43:55,-0.000,0.0,0.0,0.0
21/11/2022,06:44:55,-0.000,0.0,0.0,0.0
21/11/2022,06:45:55,-0.000,0.0,0.0,0.0
21/11/2022,06:46:54,-0.000,0.0,0.0,0.0
21/11/2022,06:47:54,-0.000,0.0,0.0,0.0
21/11/2022,06:48:55,-0.001,0.0,0.0,0.0
21/11/2022,06:49:55,-0.000,0.0,0.0,0.0
21/11/2022,06:50:55,-0.000,0.0,0.0,0.0
21/11/2022,06:51:55,-0.000,0.0,0.0,0.0
21/11/2022,06:52:55,-0.000,0.0,0.0,0.0
21/11/2022,06:53:54,-0.000,0.0,0.0,0.0
21/11/2022,06:54:55,-0.000,0.0,0.0,0.0
21/11/2022,06:55:56,-0.000,0.0,0.0,0.0
21/11/2022,06:56:56,-0.000,0.0,0.0,0.0
21/11/2022,06:57:54,-0.000,0.0,0.0,0.0
21/11/2022,06:58:55,-0.000,0.0,0.0,0.0
21/11/2022,06:59:55,-0.000,0.0,0.0,0.0
21/11/2022,07:00:54,-0.000,0.0,0.0,0.0
21/11/2022,07:01:55,-0.000,0.0,0.0,0.0
21/11/2022,07:02:55,-0.000,0.0,0.0,0.0
21/11/2022,07:03:55,-0.000,0.0,0.0,0.0
21/11/2022,07:04:55,-0.000,0.0,0.0,0.0
21/11/2022,07:05:55,-0.000,0.0,0.0,0.0
21/11/2022,07:06:55,-0.000,0.0,0.0,0.0
21/11/2022,07:07:55,-0.001,0.0,0.0,0.0
21/11/2022,07:08:55,-0.000,0.0,0.0,0.0
21/11/2022,07:09:55,-0.000,0.0,0.0,0.0
21/11/2022,07:10:55,-0.000,0.0,0.0,0.0
21/11/2022,07:11:55,-0.000,0.0,0.0,0.0
21/11/2022,07:12:55,-0.000,0.0,0.0,0.0
21/11/2022,07:13:54,-0.000,0.0,0.0,0.0
21/11/2022,07:14:55,-0.000,0.0,0.0,0.0
21/11/2022,07:15:55,-0.000,0.0,0.0,0.0
21/11/2022,07:16:55,-0.000,0.0,0.0,0.0
21/11/2022,07:17:55,-0.000,0.0,0.0,0.0
21/11/2022,07:18:54,-0.000,0.0,0.0,0.0
21/11/2022,07:19:55,-0.000,0.0,0.0,0.0
21/11/2022,07:20:54,-0.000,0.0,0.0,0.0
21/11/2022,07:21:55,-0.000,0.0,0.0,0.0
21/11/2022,07:22:55,0.001,0.0,0.0,0.0
21/11/2022,07:23:55,0.000,0.0,0.0,0.0
21/11/2022,07:24:55,-0.000,0.0,0.0,0.0
21/11/2022,07:25:55,0.001,0.0,0.0,0.0
21/11/2022,07:26:55,-0.000,0.0,0.0,0.0
21/11/2022,07:27:55,0.000,0.0,0.0,0.0
21/11/2022,07:28:55,-0.000,0.0,0.0,0.0
21/11/2022,07:29:54,0.000,0.0,0.0,0.0
21/11/2022,07:30:55,0.000,0.0,0.0,0.0
21/11/2022,07:31:55,0.000,0.0,0.0,0.0
21/11/2022,07:32:55,0.001,0.0,0.0,0.0
21/11/2022,07:33:55,0.001,0.0,0.0,0.0
21/11/2022,07:34:55,0.002,0.0,0.0,0.0
21/11/2022,07:35:55,0.001,0.0,0.0,0.0
21/11/2022,07:36:54,0.001,0.0,0.0,0.0
21/11/2022,07:37:55,0.001,0.0,0.0,0.0
21/11/2022,07:38:55,0.001,0.0,0.0,0.0
21/11/2022,07:39:55,0.001,0.0,0.0,0.0
21/11/2022,07:40:54,0.001,0.0,0.0,0.0
21/11/2022,07:41:55,0.002,0.0,0.0,0.0
21/11/2022,07:42:55,0.002,0.0,0.0,0.0
21/11/2022,07:43:55,0.002,0.0,0.0,0.0
21/11/2022,07:44:55,0.003,0.0,0.0,0.0
21/11/2022,07:45:55,0.002,0.0,0.0,0.0
21/11/2022,07:46:55,0.002,0.0,0.0,0.0
21/11/2022,07:47:55,0.003,0.0,0.0,0.0
21/11/2022,07:48:55,0.003,0.0,0.0,0.0
21/11/2022,07:49:55,0.003,0.0,0.0,0.0
21/11/2022,07:50:55,0.003,0.0,0.0,0.0
21/11/2022,07:51:55,0.004,0.0,0.0,0.0
21/11/2022,07:52:55,0.003,0.0,0.0,0.0
21/11/2022,07:53:55,0.003,0.0,0.0,0.0
21/11/2022,07:54:55,0.003,0.0,0.0,0.0
21/11/2022,07:55:55,0.003,0.0,0.0,0.0
21/11/2022,07:56:55,0.004,0.0,0.0,0.0
21/11/2022,07:57:55,0.004,0.0,0.0,0.0
21/11/2022,07:58:55,0.004,0.0,0.0,0.0
21/11/2022,07:59:55,0.004,0.0,0.0,0.0
21/11/2022,08:00:55,0.004,0.0,0.0,0.0
21/11/2022,08:01:55,0.004,0.0,0.0,0.0
21/11/2022,08:02:55,0.004,0.0,0.0,0.0
21/11/2022,08:03:55,0.004,0.0,0.0,0.0
21/11/2022,08:04:55,0.004,0.0,0.0,0.0
21/11/2022,08:05:55,0.005,0.0,0.0,0.0
21/11/2022,08:06:55,0.005,0.0,0.0,0.0
21/11/2022,08:07:55,0.005,0.0,0.0,0.0
21/11/2022,08:08:55,0.005,0.0,0.0,0.0
21/11/2022,08:09:55,0.005,0.0,0.0,0.0
21/11/2022,08:10:55,0.005,0.0,0.0,0.0
21/11/2022,08:11:55,0.006,0.0,0.0,0.0
21/11/2022,08:12:55,0.006,0.0,0.0,0.0
21/11/2022,08:13:55,0.006,0.0,0.0,0.0
21/11/2022,08:14:55,0.005,0.0,0.0,0.0
21/11/2022,08:15:55,0.006,0.0,0.0,0.0
21/11/2022,08:16:55,0.006,0.0,0.0,0.0
21/11/2022,08:17:55,0.006,0.0,0.0,0.0
21/11/2022,08:18:55,0.006,0.0,0.0,0.0
21/11/2022,08:19:55,0.007,0.0,0.0,0.0
21/11/2022,08:20:55,0.007,0.0,0.0,0.0
21/11/2022,08:21:55,0.007,0.0,0.0,0.0
21/11/2022,08:22:55,0.007,0.0,0.001,0.001
21/11/2022,08:23:55,0.007,0.0,0.001,0.0
21/11/2022,08:24:55,0.007,0.0,0.001,0.0
21/11/2022,08:25:55,0.007,0.0,0.001,0.0
21/11/2022,08:26:55,0.007,0.0,0.001,0.0
21/11/2022,08:27:55,0.007,0.0,0.001,0.0
21/11/2022,08:28:55,0.006,0.0,0.001,0.0
21/11/2022,08:29:55,0.008,0.0,0.001,0.0
21/11/2022,08:30:55,0.006,0.0,0.001,0.0
21/11/2022,08:31:55,0.007,0.0,0.001,0.0
21/11/2022,08:32:55,0.007,0.0,0.002,0.001
21/11/2022,08:33:55,0.007,0.0,0.002,0.0
21/11/2022,08:34:55,0.006,0.0,0.002,0.0
21/11/2022,08:35:55,0.007,0.0,0.002,0.0
21/11/2022,08:36:55,0.007,0.0,0.002,0.0
21/11/2022,08:37:55,0.007,0.0,0.002,0.0
21/11/2022,08:38:55,0.007,0.0,0.002,0.0
21/11/2022,08:39:55,0.006,0.0,0.002,0.0
21/11/2022,08:40:55,0.006,0.0,0.002,0.0
21/11/2022,08:41:55,0.007,0.0,0.002,0.0
21/11/2022,08:42:55,0.006,0.0,0.002,0.0
21/11/2022,08:43:56,0.005,0.0,0.002,0.0
21/11/2022,08:44:55,0.006,0.0,0.002,0.0
21/11/2022,08:45:55,0.006,0.0,0.002,0.0
21/11/2022,08:46:55,0.005,0.0,0.002,0.0
21/11/2022,08:47:55,0.005,0.0,0.002,0.0
21/11/2022,08:48:55,0.005,0.0,0.002,0.0
21/11/2022,08:49:55,0.004,0.0,0.002,0.0
21/11/2022,08:50:56,0.005,0.0,0.002,0.0
21/11/2022,08:51:56,0.004,0.0,0.002,0.0
21/11/2022,08:52:55,0.004,0.0,0.002,0.0
21/11/2022,08:53:55,0.004,0.0,0.002,0.0
21/11/2022,08:54:55,0.004,0.0,0.002,0.0
21/11/2022,08:55:55,0.004,0.0,0.002,0.0
21/11/2022,08:56:55,0.004,0.0,0.002,0.0
21/11/2022,08:57:55,0.004,0.0,0.002,0.0
21/11/2022,08:58:55,0.005,0.0,0.002,0.0
21/11/2022,08:59:55,0.005,0.0,0.002,0.0
21/11/2022,09:00:55,0.005,0.0,0.002,0.0
21/11/2022,09:01:55,0.006,0.0,0.002,0.0
21/11/2022,09:02:55,0.006,0.0,0.002,0.0
21/11/2022,09:03:55,0.006,0.0,0.003,0.001
21/11/2022,09:04:55,0.006,0.0,0.003,0.0
21/11/2022,09:05:55,0.006,0.0,0.003,0.0
21/11/2022,09:06:56,0.006,0.0,0.003,0.0
21/11/2022,09:07:55,0.006,0.0,0.003,0.0
21/11/2022,09:08:55,0.006,0.0,0.003,0.0
21/11/2022,09:09:55,0.006,0.0,0.003,0.0
21/11/2022,09:10:55,0.008,0.0,0.003,0.0
21/11/2022,09:11:55,0.008,0.0,0.003,0.0
21/11/2022,09:12:55,0.008,0.0,0.003,0.0
21/11/2022,09:13:55,0.009,0.0,0.004,0.001
21/11/2022,09:14:55,0.009,0.0,0.004,0.0
21/11/2022,09:15:55,0.010,0.0,0.004,0.0
21/11/2022,09:16:54,0.010,0.0,0.004,0.0
21/11/2022,09:17:55,0.009,0.0,0.004,0.0
21/11/2022,09:18:55,0.010,0.0,0.004,0.0
21/11/2022,09:19:55,0.011,0.0,0.004,0.0
21/11/2022,09:20:56,0.010,0.0,0.005,0.001
21/11/2022,09:21:55,0.011,0.0,0.005,0.0
21/11/2022,09:22:55,0.010,0.0,0.005,0.0
21/11/2022,09:23:55,0.010,0.0,0.005,0.0
21/11/2022,09:24:55,0.010,0.0,0.005,0.0
21/11/2022,09:25:55,0.010,0.0,0.005,0.0
21/11/2022,09:26:55,0.010,0.0,0.006,0.001
21/11/2022,09:27:55,0.010,0.0,0.006,0.0
21/11/2022,09:28:55,0.010,0.0,0.006,0.0
21/11/2022,09:29:55,0.010,0.0,0.006,0.0
21/11/2022,09:30:55,0.011,0.0,0.006,0.0
21/11/2022,09:31:55,0.011,0.0,0.006,0.0
21/11/2022,09:32:55,0.011,0.0,0.007,0.001
21/11/2022,09:33:55,0.012,0.0,0.007,0.0
21/11/2022,09:34:55,0.013,0.0,0.007,0.0
21/11/2022,09:35:55,0.013,0.0,0.007,0.0
21/11/2022,09:36:55,0.013,0.0,0.008,0.001
21/11/2022,09:37:55,0.015,0.0,0.008,0.0
21/11/2022,09:38:55,0.014,0.0,0.008,0.0
21/11/2022,09:39:55,0.014,0.0,0.008,0.0
21/11/2022,09:40:55,0.014,0.0,0.008,0.0
21/11/2022,09:41:56,0.014,0.0,0.009,0.001
21/11/2022,09:42:55,0.014,0.0,0.009,0.0
21/11/2022,09:43:55,0.014,0.0,0.009,0.0
21/11/2022,09:44:56,0.015,0.0,0.009,0.0
21/11/2022,09:45:55,0.015,0.0,0.01,0.001
21/11/2022,09:46:55,0.014,0.0,0.01,0.0
21/11/2022,09:47:55,0.015,0.0,0.01,0.0
21/11/2022,09:48:55,0.015,0.0,0.01,0.0
21/11/2022,09:49:55,0.014,0.0,0.011,0.001
21/11/2022,09:50:55,0.015,0.0,0.011,0.0
21/11/2022,09:51:55,0.016,0.0,0.011,0.0
21/11/2022,09:52:56,0.017,0.0,0.011,0.0
21/11/2022,09:53:56,0.017,0.0,0.012,0.001
21/11/2022,09:54:55,0.017,0.0,0.012,0.0
21/11/2022,09:55:55,0.016,0.0,0.012,0.0
21/11/2022,09:56:56,0.016,0.0,0.013,0.001
21/11/2022,09:57:55,0.016,0.0,0.013,0.0
21/11/2022,09:58:55,0.018,0.0,0.013,0.0
21/11/2022,09:59:55,0.017,0.0,0.013,0.0
21/11/2022,10:00:55,0.018,0.0,0.014,0.001
21/11/2022,10:01:55,0.016,0.0,0.014,0.0
21/11/2022,10:02:55,0.016,0.0,0.014,0.0
21/11/2022,10:03:55,0.017,0.0,0.015,0.001
21/11/2022,10:04:55,0.016,0.0,0.015,0.0
21/11/2022,10:05:55,0.016,0.0,0.015,0.0
21/11/2022,10:06:55,0.016,0.0,0.015,0.0
21/11/2022,10:07:55,0.017,0.0,0.016,0.001
21/11/2022,10:08:55,0.016,0.0,0.016,0.0
21/11/2022,10:09:56,0.016,0.0,0.016,0.0
21/11/2022,10:10:55,0.015,0.0,0.016,0.0
21/11/2022,10:11:56,0.015,0.0,0.017,0.001
21/11/2022,10:12:55,0.014,0.0,0.017,0.0
21/11/2022,10:13:56,0.012,0.0,0.017,0.0
21/11/2022,10:14:55,0.012,0.0,0.017,0.0
21/11/2022,10:15:55,0.012,0.0,0.018,0.001
21/11/2022,10:16:55,0.012,0.0,0.018,0.0
21/11/2022,10:17:55,0.012,0.0,0.018,0.0
21/11/2022,10:18:55,0.013,0.0,0.018,0.0